[[{"header":{"parameterUnit":"m.s-1","parameterCategory":1,"la1":30.2991,"la2":30.254,"lo1":-89.0895,"lo2":-89.0444,"dy":0.0017,"dx":0.0017,"nx":28,"ny":28,"refTime":"2025-01-13T03:00:00:Z","depth":0,"parameterNumber":2,"parameterNumberName":"U-component_of_WINDS"},"data":[0,0,0,0,0,0,0,0,0,0,0,0,0,0,0,0,0,0,0,0,0,0,0,0,0,0,0,0,0,0,0,0,0,0,0,0,0,0,0,0,0,0,0,0,0,0,0,0,0,0,0,0,0,0,0,0,0,0,-2.1848,-2.1849,0,-2.1922,-2.1923,-2.1924,-2.1868,-2.1865,-2.1863,-2.186,-2.1937,-2.1941,-2.1945,0,0,0,0,0,0,0,0,0,0,0,0,0,-2.1656,-2.166,-2.1848,-2.1849,-2.185,-2.1922,-2.1923,-2.1924,-2.1868,-2.1865,-2.1862,-2.1859,-2.1935,-2.194,-2.1946,0,0,0,0,0,0,0,0,0,0,0,0,0,-2.1736,-2.1662,-2.1848,-2.1831,-2.183,-2.1922,-2.1923,-2.1925,-2.1869,-2.1865,-2.1861,-2.1858,-2.1934,-2.194,-2.1946,-2.206,0,0,-2.1966,-2.1969,0,0,0,0,0,0,0,0,-2.1732,-2.1743,-2.1832,-2.1832,-2.1831,-2.1882,-2.1884,-2.197,-2.187,-2.1854,-2.186,-2.1856,-2.1922,-2.1929,-2.1951,-2.2063,-2.2067,-2.1967,-2.1971,-2.1973,-2.1975,0,0,0,0,0,0,0,-2.1726,-2.174,-2.1877,-2.1834,-2.1833,-2.1819,-2.1826,-2.19,-2.1907,-2.1855,-2.1851,-2.1861,-2.1921,-2.1945,-2.1952,-2.2068,-2.1967,-2.1972,-2.1976,-2.1979,-2.2276,-2.228,0,0,0,0,0,0,-2.1722,-2.1735,-2.1875,-2.188,-2.1771,-2.1825,-2.1833,-2.1869,-2.1906,-2.1909,-2.1864,-2.1858,-2.1935,-2.1945,-2.1955,-2.209,-2.1973,-2.1979,-2.1983,-2.2272,-2.2277,-2.2281,0,0,0,0,0,0,-2.1719,-2.1735,-2.1872,-2.1807,-2.1823,-2.1832,-2.1873,-2.1873,-2.1897,-2.1913,-2.1914,-2.1887,-2.1933,-2.1946,-2.2034,-2.2092,-2.1982,-2.1988,-2.2267,-2.2274,-2.2279,-2.2362,0,0,0,0,0,0,-2.1713,-2.1734,-2.1778,-2.1808,-2.1827,-2.1951,-2.1877,-2.1877,-2.1908,-2.1901,-2.1935,-2.1937,-2.1931,-2.2025,-2.204,-2.2099,-2.1993,-2.2262,-2.227,-2.2277,-2.2354,-2.237,-2.2384,0,0,0,0,0,-2.1707,-2.1799,-2.1781,-2.1798,-2.1881,-2.1954,-2.1965,-2.1956,-2.1913,-2.1957,-2.1967,-2.1936,-2.2082,-2.2034,-2.2051,-2.2113,-2.2259,-2.2268,-2.2277,-2.2347,-2.2367,-2.2383,0,0,0,0,0,0,-2.1776,-2.1802,-2.1783,-2.1887,-2.1919,-2.1945,-2.2,-2.1977,-2.2021,-2.2013,-2.1999,-2.2007,-2.21,-2.2115,-2.206,-2.2224,-2.2164,-2.2177,-2.2212,-2.223,-2.2245,-2.224,-2.1999,0,0,0,0,0,-2.1803,-2.186,-2.188,-2.197,-2.1987,-2.1991,-2.2022,-2.2012,-2.2044,-2.2058,-2.2074,-2.2107,-2.216,-2.2195,-2.2245,-2.2355,-2.2361,-2.2405,-2.242,-2.2432,-2.2444,-2.2503,-2.2523,-2.2311,-2.2311,-2.2311,0,0,-2.1861,-2.1882,-2.1919,-2.1985,-2.2008,-2.2068,-2.2003,-2.2068,-2.2112,-2.2068,-2.2153,-2.2165,-2.2201,-2.23,-2.2345,-2.2315,-2.2504,-2.2444,-2.2453,-2.2459,-2.2514,-2.2534,-2.2552,-2.2317,-2.2316,-2.2315,0,0,-2.1996,-2.2018,-2.2095,-2.212,-2.2156,-2.2157,-2.2175,-2.2205,-2.2212,-2.2296,-2.2264,-2.2315,-2.2407,-2.2433,-2.2459,-2.2601,-2.2575,-2.2618,-2.2696,-2.2753,-2.277,-2.2785,-2.2837,-2.2855,-2.2629,-2.2629,-2.2629,0,-2.2063,-2.2152,-2.2138,-2.2206,-2.2236,-2.2197,-2.2275,-2.23,-2.235,-2.2371,-2.2337,-2.2451,-2.2472,-2.2577,-2.2612,-2.2633,-2.2654,-2.2615,-2.2769,-2.2784,-2.2797,-2.2846,-2.2866,-2.2634,-2.2634,-2.2633,-2.2633,0,-2.2233,-2.2294,-2.2352,-2.2402,-2.2438,-2.2511,-2.2508,-2.2545,-2.2531,-2.2536,-2.2622,-2.2645,-2.2699,-2.2722,-2.271,-2.2826,-2.2806,-2.2771,-2.271,-2.2823,-2.2869,-2.2887,-2.2642,-2.264,-2.2638,-2.2637,0,0,-2.2417,-2.2456,-2.2478,-2.25,-2.2535,-2.2583,-2.2653,-2.2705,-2.2738,-2.2773,-2.2832,-2.2909,-2.2876,-2.2905,-2.2894,-2.2944,-2.3057,-2.2902,-2.2903,-2.2931,-2.3186,-2.3214,-2.3236,-2.3038,-2.3041,-2.3044,-2.3184,0,-2.2555,-2.2678,-2.2667,-2.2784,-2.2841,-2.2803,-2.2864,-2.2892,-2.2898,-2.2946,-2.2952,-2.3008,-2.2959,-2.2976,-2.3024,-2.3033,-2.3108,-2.3022,-2.3093,-2.3096,-2.3088,-2.326,-2.3291,-2.3421,-2.3201,-2.3204,-2.3207,0,-2.2734,-2.2775,-2.2898,-2.2924,-2.2947,-2.3002,-2.3049,-2.3095,-2.3126,-2.3126,-2.3157,-2.3137,-2.3207,-2.3143,-2.324,-2.3182,-2.3209,-2.3218,-2.3222,-2.3231,-2.316,-2.3275,-2.3463,-2.3483,-2.3235,-2.3232,-2.323,0,-2.2858,-2.2943,-2.3028,-2.3047,-2.3079,-2.3119,-2.3134,-2.3161,-2.3193,-2.3232,-2.3253,-2.33,-2.3327,-2.3363,-2.3357,-2.331,-2.3455,-2.339,-2.3458,-2.3458,-2.3492,-2.3491,-2.3689,-2.3507,-2.3507,-2.3506,-2.3506,0,-2.3014,-2.3091,-2.3084,-2.3136,-2.322,-2.3205,-2.3289,-2.3299,-2.3323,-2.3376,-2.3345,-2.3396,-2.3383,-2.3432,-2.3427,-2.3508,-2.3519,-2.3522,-2.352,-2.3526,-2.3526,-2.3546,-2.3537,-2.3511,-2.351,-2.3509,-2.3508,0,-2.3169,-2.3166,-2.3256,-2.3278,-2.3285,-2.3347,-2.3366,-2.3415,-2.3416,-2.3484,-2.3499,-2.3502,-2.3559,-2.3554,-2.3618,-2.3614,-2.3715,-2.3701,-2.3705,-2.3703,-2.3771,-2.3765,-2.399,-2.4019,-2.3817,-2.3819,-2.382,0,-2.327,-2.3328,-2.3356,-2.3389,-2.3407,-2.3461,-2.3493,-2.348,-2.3514,-2.3552,-2.3596,-2.365,-2.3692,-2.3784,-2.3792,-2.384,-2.3828,-2.3904,-2.3836,-2.384,-2.3831,-2.3829,-2.3834,-2.3918,-2.3921,-2.3922,-2.3924,0,-2.3451,-2.3446,-2.3493,-2.354,-2.3579,-2.3615,-2.3648,-2.3676,-2.3666,-2.3706,-2.3763,-2.3796,-2.386,-2.3914,-2.3959,-2.3974,-2.3948,-2.3945,-2.3963,-2.3971,-2.3972,-2.3973,-2.3743,-2.3941,-2.3939,-2.3938,-2.3937,-2.3936,-2.3583,-2.3632,-2.366,-2.3713,-2.3736,-2.3767,-2.3814,-2.3821,-2.3868,-2.392,-2.3908,-2.3973,-2.4,-2.4058,-2.4077,-2.4127,-2.41,-2.4126,-2.4133,-2.4141,-2.4149,-2.3962,-2.4135,-2.4135,-2.4134,-2.4134,-2.4133,0,-2.3763,-2.3778,-2.3827,-2.3873,-2.3915,-2.3885,-2.3919,-2.3956,-2.4013,-2.4041,-2.4082,-2.4148,-2.4199,-2.421,-2.4259,-2.4296,-2.4285,-2.431,-2.4308,-2.4312,-2.417,-2.415,-2.4318,-2.4318,-2.4318,-2.4318,-2.4318,-2.4318,-2.3862,-2.3945,-2.3943,-2.4036,-2.405,-2.4113,-2.4135,-2.4163,-2.4185,-2.426,-2.4302,-2.4308,-2.4329,-2.4378,-2.4424,-2.4425,-2.4445,-2.4475,-2.4472,-2.434,-2.4322,-2.4304,-2.4285,-2.4479,-2.4479,-2.461,-2.4611,-2.4612]},{"header":{"parameterUnit":"m.s-1","parameterCategory":1,"la1":30.2991,"la2":30.254,"lo1":-89.0895,"lo2":-89.0444,"dy":0.0017,"dx":0.0017,"nx":28,"ny":28,"refTime":"2025-01-13T03:00:00:Z","depth":0,"parameterNumber":3,"parameterNumberName":"V-component_of_WINDS"},"data":[0,0,0,0,0,0,0,0,0,0,0,0,0,0,0,0,0,0,0,0,0,0,0,0,0,0,0,0,0,0,0,0,0,0,0,0,0,0,0,0,0,0,0,0,0,0,0,0,0,0,0,0,0,0,0,0,0,0,-6.5187,-6.5188,0,-6.5309,-6.531,-6.5311,-6.5229,-6.5225,-6.5221,-6.5218,-6.5337,-6.5344,-6.535,0,0,0,0,0,0,0,0,0,0,0,0,0,-6.4875,-6.4881,-6.5186,-6.5188,-6.519,-6.5309,-6.531,-6.5312,-6.5229,-6.5225,-6.522,-6.5216,-6.5335,-6.5343,-6.5351,0,0,0,0,0,0,0,0,0,0,0,0,0,-6.5005,-6.4883,-6.5186,-6.5163,-6.5162,-6.5308,-6.531,-6.5312,-6.523,-6.5225,-6.5219,-6.5214,-6.5332,-6.5342,-6.5352,-6.5526,0,0,-6.5383,-6.5387,0,0,0,0,0,0,0,0,-6.4997,-6.5016,-6.5165,-6.5165,-6.5164,-6.5248,-6.5244,-6.5384,-6.5232,-6.5204,-6.5218,-6.5211,-6.5312,-6.5323,-6.5358,-6.5532,-6.5537,-6.5384,-6.539,-6.5394,-6.5397,0,0,0,0,0,0,0,-6.4989,-6.501,-6.5235,-6.5167,-6.5167,-6.5144,-6.5156,-6.527,-6.5288,-6.5206,-6.5201,-6.5216,-6.531,-6.5349,-6.536,-6.5539,-6.5383,-6.5392,-6.5398,-6.5402,-6.5859,-6.5865,0,0,0,0,0,0,-6.4982,-6.5004,-6.5231,-6.5238,-6.5065,-6.5154,-6.5168,-6.5227,-6.5286,-6.529,-6.5221,-6.5212,-6.5334,-6.5349,-6.5364,-6.5571,-6.5394,-6.5403,-6.5409,-6.5853,-6.586,-6.5867,0,0,0,0,0,0,-6.4976,-6.5004,-6.5226,-6.512,-6.5146,-6.5166,-6.5232,-6.5232,-6.527,-6.5298,-6.53,-6.5258,-6.5331,-6.535,-6.5486,-6.5574,-6.5408,-6.5417,-6.5846,-6.5855,-6.5864,-6.5987,0,0,0,0,0,0,-6.4968,-6.5002,-6.507,-6.5122,-6.5152,-6.5349,-6.5237,-6.5238,-6.5288,-6.5278,-6.5332,-6.5336,-6.5328,-6.5472,-6.5496,-6.5585,-6.5425,-6.5838,-6.585,-6.5861,-6.5976,-6.6,-6.602,0,0,0,0,0,-6.4957,-6.5099,-6.5074,-6.5102,-6.5238,-6.5354,-6.5371,-6.536,-6.5296,-6.5363,-6.5381,-6.5334,-6.5561,-6.5487,-6.5514,-6.5606,-6.5832,-6.5847,-6.586,-6.5966,-6.5995,-6.602,0,0,0,0,0,0,-6.5056,-6.5105,-6.5078,-6.5242,-6.5295,-6.534,-6.5425,-6.5392,-6.5462,-6.5449,-6.5431,-6.5444,-6.5586,-6.5609,-6.5527,-6.5777,-6.5686,-6.5706,-6.5757,-6.5785,-6.5807,-6.5799,-6.5433,0,0,0,0,0,-6.5097,-6.5189,-6.5226,-6.5367,-6.5395,-6.5406,-6.5456,-6.5443,-6.5496,-6.5517,-6.5544,-6.5596,-6.5678,-6.5732,-6.581,-6.5978,-6.5988,-6.6055,-6.6077,-6.6095,-6.6113,-6.6202,-6.6232,-6.5912,-6.5912,-6.5912,0,0,-6.5182,-6.5221,-6.528,-6.5388,-6.5427,-6.5521,-6.5425,-6.5528,-6.5597,-6.5532,-6.5663,-6.5685,-6.574,-6.5893,-6.5962,-6.5917,-6.6203,-6.6113,-6.6127,-6.6135,-6.6219,-6.6249,-6.6276,-6.5922,-6.592,-6.5918,0,0,-6.5386,-6.5425,-6.5546,-6.5587,-6.5648,-6.5654,-6.5683,-6.5734,-6.5746,-6.5878,-6.5831,-6.591,-6.6053,-6.6095,-6.6134,-6.6352,-6.6311,-6.6377,-6.6494,-6.6581,-6.6607,-6.6629,-6.6706,-6.6734,-6.6394,-6.6395,-6.6395,0,-6.5484,-6.5625,-6.5612,-6.5719,-6.5767,-6.5714,-6.5835,-6.5875,-6.5958,-6.5991,-6.594,-6.6117,-6.6151,-6.6312,-6.6365,-6.64,-6.643,-6.6372,-6.6604,-6.6627,-6.6647,-6.672,-6.6749,-6.6402,-6.6401,-6.6401,-6.64,0,-6.5742,-6.5841,-6.5931,-6.6014,-6.6072,-6.6185,-6.6187,-6.6247,-6.6228,-6.6239,-6.6372,-6.641,-6.6494,-6.6531,-6.6513,-6.669,-6.666,-6.6607,-6.6515,-6.6685,-6.6754,-6.6782,-6.6413,-6.6411,-6.6408,-6.6406,0,0,-6.6013,-6.6087,-6.612,-6.6157,-6.6219,-6.6294,-6.6403,-6.6487,-6.6538,-6.6596,-6.6687,-6.6808,-6.6759,-6.6805,-6.679,-6.6867,-6.7036,-6.6804,-6.6805,-6.6846,-6.7231,-6.727,-6.7303,-6.7009,-6.7014,-6.7018,-6.7226,0,-6.622,-6.6415,-6.6405,-6.6586,-6.6676,-6.6626,-6.6721,-6.6768,-6.678,-6.6856,-6.6868,-6.6955,-6.6884,-6.6911,-6.6984,-6.7,-6.7113,-6.6985,-6.7091,-6.7095,-6.708,-6.7339,-6.7382,-6.7576,-6.7253,-6.7257,-6.726,0,-6.6489,-6.6557,-6.6748,-6.6796,-6.6833,-6.692,-6.6995,-6.7069,-6.712,-6.7123,-6.7174,-6.7147,-6.7255,-6.716,-6.7308,-6.7221,-6.7263,-6.7277,-6.7285,-6.7294,-6.7189,-6.7356,-6.7638,-6.7667,-6.7302,-6.7299,-6.7296,0,-6.6667,-6.6807,-6.6939,-6.6971,-6.7031,-6.7092,-6.712,-6.7166,-6.7216,-6.7281,-6.7313,-6.7388,-6.743,-6.7488,-6.7481,-6.7413,-6.7631,-6.7536,-6.7635,-6.7636,-6.7684,-6.7682,-6.7977,-6.7712,-6.7711,-6.7711,-6.771,0,-6.6899,-6.7018,-6.7019,-6.7101,-6.7231,-6.7217,-6.7346,-6.7366,-6.7407,-6.7489,-6.7449,-6.7527,-6.7513,-6.759,-6.7585,-6.7708,-6.7726,-6.7731,-6.7728,-6.7735,-6.7734,-6.7763,-6.7749,-6.7718,-6.7717,-6.7715,-6.7714,0,-6.7121,-6.7127,-6.7267,-6.7312,-6.7326,-6.742,-6.7457,-6.7533,-6.7541,-6.7646,-6.7669,-6.7681,-6.777,-6.7769,-6.7869,-6.7865,-6.8015,-6.7997,-6.7999,-6.7995,-6.8095,-6.8086,-6.8419,-6.8462,-6.8169,-6.8172,-6.8174,0,-6.7269,-6.736,-6.7414,-6.7468,-6.7499,-6.7585,-6.7637,-6.7625,-6.768,-6.7745,-6.7812,-6.7897,-6.7964,-6.8107,-6.8124,-6.8199,-6.8182,-6.8294,-6.8193,-6.8197,-6.8184,-6.8179,-6.8187,-6.8314,-6.8317,-6.832,-6.8322,0,-6.7532,-6.753,-6.7607,-6.7685,-6.7748,-6.7808,-6.7864,-6.7909,-6.7903,-6.7966,-6.8057,-6.8109,-6.8212,-6.8296,-6.8369,-6.8393,-6.8357,-6.8353,-6.838,-6.8389,-6.8386,-6.8388,-6.8053,-6.8346,-6.8344,-6.8342,-6.8341,-6.834,-6.7721,-6.7799,-6.7849,-6.7936,-6.7976,-6.8029,-6.8102,-6.8119,-6.8196,-6.828,-6.8267,-6.8368,-6.8415,-6.8509,-6.854,-6.8617,-6.8578,-6.8617,-6.8627,-6.8637,-6.8648,-6.8374,-6.863,-6.863,-6.8629,-6.8629,-6.8628,0,-6.7981,-6.8011,-6.8091,-6.817,-6.8238,-6.8199,-6.8257,-6.8316,-6.8406,-6.8454,-6.8521,-6.8624,-6.8705,-6.8728,-6.8805,-6.8862,-6.8847,-6.8883,-6.8879,-6.8885,-6.8679,-6.8648,-6.8894,-6.8894,-6.8894,-6.8894,-6.8893,-6.8893,-6.8125,-6.8254,-6.8258,-6.8405,-6.8433,-6.8533,-6.857,-6.8617,-6.8655,-6.8773,-6.8841,-6.8856,-6.8892,-6.8972,-6.9044,-6.9048,-6.9078,-6.9121,-6.9118,-6.8926,-6.8899,-6.8874,-6.8845,-6.9127,-6.9128,-6.9317,-6.9319,-6.932]}]]